Date String (YYYY-MM-DD hh:mm:ss) UTC,Instrument flags,Ambient pressure (hPa),Sample flow (lpm),Bypass flow (lpm),Sample temperature (°C),Ambient temperature (°C),ASC tube jacket temperature (°C),LED temperature (°C),Box temperature (°C),Sample RH (%),Span deviation,Mass concentration (μg/m³),Mass concentration (μg/m³),Mass concentration (μg/m³)
DateTimeUTC,F1_M11,P_M11,Q1_M11,Q2_M11,T1_M11,T2_M11,T3_M11,T4_M11,T5_M11,U1_M11,ZSPAN_M11,X0_M11,X2_M11,X1_M11
2022-03-23 12:00:00,,0826.5,5.00,0.00,21.6,22.1,00.0,30.5,23.3,07.2,0000.0,0003.38,0000.85,0000.55
2022-03-23 12:01:00,,0826.5,4.99,0.00,21.5,21.7,00.0,30.5,23.2,07.2,0000.0,0003.54,0000.87,0000.55
2022-03-23 12:02:00,,0826.5,5.01,0.00,21.5,21.4,00.0,30.5,23.1,07.2,0000.0,0003.29,0000.90,0000.55
2022-03-23 12:03:00,,0826.5,5.00,0.00,21.4,21.1,00.0,30.5,23.0,07.2,0000.0,0003.27,0000.90,0000.55
2022-03-23 12:04:00,,0826.5,5.01,0.00,21.4,20.9,00.0,30.5,22.9,07.2,0000.0,0003.22,0000.90,0000.55
2022-03-23 12:05:00,,0826.4,5.01,0.00,21.3,20.7,00.0,30.4,22.9,07.2,0000.0,0003.18,0000.90,0000.55
2022-03-23 12:06:00,,0826.4,5.00,0.00,21.3,20.6,00.0,30.4,22.8,07.3,0000.0,0003.33,0000.91,0000.54
2022-03-23 12:07:00,,0826.4,5.00,0.00,21.3,20.5,00.0,30.4,22.8,07.3,0000.0,0003.27,0000.90,0000.54
2022-03-23 12:08:00,,0826.4,5.00,0.00,21.3,20.5,00.0,30.4,22.8,07.3,0000.0,0003.11,0000.87,0000.53
2022-03-23 12:09:00,,0826.4,5.00,0.00,21.2,20.4,00.0,30.4,22.8,07.4,0000.0,0003.10,0000.86,0000.52
2022-03-23 12:10:00,,0826.4,5.00,0.00,21.2,20.4,00.0,30.4,22.7,07.4,0000.0,0003.09,0000.87,0000.53
2022-03-23 12:11:00,,0826.4,4.98,0.00,21.2,20.7,00.0,30.4,22.8,07.4,0000.0,0003.15,0000.89,0000.53
2022-03-23 12:12:00,,0826.5,5.02,0.00,21.3,21.7,00.0,30.4,23.1,07.3,0000.0,0002.15,0000.92,0000.53
2022-03-23 12:13:00,,0826.4,4.99,0.00,21.5,22.6,00.0,30.4,23.4,07.3,0000.0,0001.78,0000.89,0000.53
2022-03-23 12:14:00,,0826.3,5.00,0.00,21.6,22.7,00.0,30.5,23.6,07.2,0000.0,0001.76,0000.89,0000.54
2022-03-23 12:15:00,,0826.3,5.00,0.00,21.7,22.3,00.0,30.5,23.5,07.2,0000.0,0001.83,0000.92,0000.54
2022-03-23 12:16:00,,0826.3,5.00,0.00,21.6,21.9,00.0,30.5,23.3,07.1,0000.0,0001.81,0000.92,0000.54
2022-03-23 12:17:00,,0826.3,5.01,0.00,21.6,21.5,00.0,30.5,23.2,07.1,0000.0,0001.68,0000.90,0000.53
2022-03-23 12:18:00,,0826.2,4.99,0.00,21.5,21.3,00.0,30.5,23.1,07.2,0000.0,0001.68,0000.91,0000.53
2022-03-23 12:19:00,,0826.2,5.00,0.00,21.5,21.0,00.0,30.5,23.0,07.3,0000.0,0001.66,0000.91,0000.54
2022-03-23 12:20:00,,0826.3,5.00,0.00,21.4,20.8,00.0,30.5,22.9,07.3,0000.0,0001.64,0000.90,0000.54
2022-03-23 12:21:00,,0826.4,5.00,0.00,21.3,20.6,00.0,30.4,22.8,07.2,0000.0,0001.62,0000.90,0000.55
2022-03-23 12:22:00,,0826.4,5.01,0.00,21.2,20.4,00.0,30.4,22.7,07.2,0000.0,0001.64,0000.90,0000.55
2022-03-23 12:23:00,,0826.4,5.00,0.00,21.2,20.2,00.0,30.4,22.6,07.3,0000.0,0001.54,0000.87,0000.55
2022-03-23 12:24:00,,0826.3,5.00,0.00,21.1,20.3,00.0,30.4,22.6,07.3,0000.0,0001.59,0000.90,0000.55
2022-03-23 12:25:00,,0826.3,5.00,0.00,21.2,21.3,00.0,30.4,22.9,07.3,0000.0,0001.63,0000.89,0000.54
2022-03-23 12:26:00,,0826.3,5.01,0.00,21.4,22.3,00.0,30.4,23.3,07.2,0000.0,0001.65,0000.89,0000.54
2022-03-23 12:27:00,,0826.3,4.99,0.00,21.6,22.8,00.0,30.5,23.5,07.1,0000.0,0001.63,0000.88,0000.54
2022-03-23 12:28:00,,0826.2,5.01,0.00,21.6,22.4,00.0,30.5,23.4,07.0,0000.0,0001.68,0000.91,0000.55
2022-03-23 12:29:00,,0826.2,5.00,0.00,21.6,22.0,00.0,30.5,23.3,07.0,0000.0,0001.70,0000.91,0000.54
2022-03-23 12:30:00,,0826.2,4.99,0.00,21.6,21.6,00.0,30.5,23.2,07.0,0000.0,0001.68,0000.90,0000.54
2022-03-23 12:31:00,,0826.2,5.00,0.00,21.5,21.4,00.0,30.5,23.2,07.0,0000.0,0001.63,0000.89,0000.54
2022-03-23 12:32:00,,0826.2,4.99,0.00,21.5,21.2,00.0,30.5,23.1,07.0,0000.0,0001.64,0000.90,0000.55
2022-03-23 12:33:00,,0826.2,5.01,0.00,21.5,21.1,00.0,30.5,23.1,07.1,0000.0,0001.59,0000.89,0000.54
2022-03-23 12:34:00,,0826.2,5.01,0.00,21.4,20.9,00.0,30.5,23.0,07.1,0000.0,0001.64,0000.89,0000.53
2022-03-23 12:35:00,,0826.1,5.00,0.00,21.4,20.7,00.0,30.5,22.9,07.1,0000.0,0001.87,0000.87,0000.53
2022-03-23 12:36:00,,0826.1,5.01,0.00,21.3,20.5,00.0,30.4,22.8,07.0,0000.0,0002.08,0000.88,0000.52
2022-03-23 12:37:00,,0826.2,5.00,0.00,21.3,20.4,00.0,30.4,22.7,07.1,0000.0,0002.11,0000.89,0000.52
2022-03-23 12:38:00,,0826.3,5.00,0.00,21.2,20.2,00.0,30.4,22.7,07.2,0000.0,0002.61,0000.90,0000.51
2022-03-23 12:39:00,,0826.2,5.01,0.00,21.2,20.8,00.0,30.4,22.8,07.2,0000.0,0002.68,0000.90,0000.51
2022-03-23 12:40:00,,0826.2,5.01,0.00,21.4,21.9,00.0,30.4,23.2,07.1,0000.0,0002.63,0000.90,0000.51
2022-03-23 12:41:00,,0826.2,4.99,0.00,21.6,22.8,00.0,30.5,23.5,07.0,0000.0,0002.59,0000.88,0000.51
2022-03-23 12:42:00,,0826.2,4.99,0.00,21.7,22.7,00.0,30.5,23.5,07.0,0000.0,0003.51,0000.84,0000.51
2022-03-23 12:43:00,,0826.2,5.01,0.00,21.7,22.3,00.0,30.5,23.4,07.0,0000.0,0003.49,0000.82,0000.50
2022-03-23 12:44:00,,0826.2,5.00,0.00,21.6,21.9,00.0,30.5,23.3,07.0,0000.0,0003.57,0000.84,0000.49
2022-03-23 12:45:00,,0826.2,5.02,0.00,21.6,21.6,00.0,30.5,23.3,07.0,0000.0,0004.93,0000.82,0000.49
2022-03-23 12:46:00,,0826.2,4.98,0.00,21.6,21.4,00.0,30.5,23.2,07.0,0000.0,0005.12,0000.89,0000.50
2022-03-23 12:47:00,,0826.2,5.00,0.00,21.5,21.1,00.0,30.5,23.0,06.9,0000.0,0004.82,0000.88,0000.50
2022-03-23 12:48:00,,0826.3,5.00,0.00,21.4,20.8,00.0,30.5,22.9,07.0,0000.0,0004.79,0000.88,0000.51
2022-03-23 12:49:00,,0826.2,5.00,0.00,21.3,20.6,00.0,30.5,22.8,07.0,0000.0,0004.44,0000.89,0000.52
2022-03-23 12:50:00,,0826.3,4.99,0.00,21.3,20.4,00.0,30.5,22.7,07.0,0000.0,0004.28,0000.90,0000.53
2022-03-23 12:51:00,,0826.4,5.00,0.00,21.2,20.3,00.0,30.4,22.6,07.0,0000.0,0004.42,0000.94,0000.54
2022-03-23 12:52:00,,0826.4,5.00,0.00,21.2,20.3,00.0,30.4,22.6,07.0,0000.0,0004.43,0000.94,0000.55
2022-03-23 12:53:00,,0826.4,5.01,0.00,21.2,21.1,00.0,30.4,22.9,06.9,0000.0,0003.61,0000.95,0000.54
2022-03-23 12:54:00,,0826.3,5.00,0.00,21.4,22.2,00.0,30.4,23.2,06.8,0000.0,0003.44,0000.95,0000.55
2022-03-23 12:55:00,,0826.4,5.01,0.00,21.6,22.9,00.0,30.5,23.5,06.8,0000.0,0003.77,0000.94,0000.56
2022-03-23 12:56:00,,0826.4,5.00,0.00,21.7,22.7,00.0,30.5,23.5,06.7,0000.0,0002.33,0000.94,0000.57
2022-03-23 12:57:00,,0826.4,5.00,0.00,21.7,22.3,00.0,30.5,23.4,06.7,0000.0,0001.96,0000.88,0000.57
2022-03-23 12:58:00,,0826.4,4.99,0.00,21.6,21.9,00.0,30.5,23.3,06.7,0000.0,0001.91,0000.87,0000.58
2022-03-23 12:59:00,,0826.3,4.99,0.00,21.6,21.4,00.0,30.5,23.1,06.7,0000.0,0001.91,0000.86,0000.58
